METEOR 2-17 DEB, 29299

Orbit data source: Space-Track

METEOR 2-17 DEB, 29299 is space debris in LEO originally from a launch on Sat, 30 Jan 1988 UTC launched from the Plesetsk Missile And Space Complex (PKMTR). Debris objects in space refer to the collection of defunct objects orbiting the Earth. Examples of debris include non-operational satellites, rocket bodies, and fragments generated from explosions, collisions, or faulty payload assembly.

Loading next visibility...
Identifier
29299, 1988-005N
Orbit
LEO
Country
Flag of CISCIS
Related business
Manufacturer
Unknown
Mission
Spacecraft
Bus & Motor
Unknown
Mass
Unknown
Launch date (UTC)
1988-01-30 (38 years ago)
Launch vehicle
Unknown
Launch site
Plesetsk Missile And Space Complex (PKMTR)
Object type
Payload
Rocket body
Debris
Shape & HBR
Unknown shape, 0.1 m
Radar Cross Section
Small (<0.1 m²)

Expand to show TLE details & history
Last TLE update: 4 days ago

TLE from 4 days ago
0 METEOR 2-17 DEB
1 29299U 88005N   25348.86283007  .00002717  00000-0  16509-2 0  9998
2 29299  82.5335  35.9904 0033793   2.8884 357.2476 14.05656046657924
Epoch: 2025-12-14T20:42Z
TLE epoch observation values (Epoch: 2025-12-14T20:42:28.518Z)
Latitude
-0.00006°
Longitude
1.60191°
Altitude
852.722 km
Speed
7.439 km/s
True Right ascension
02h 23m 57s
True Declination
0° 00' 00"
Sunlit
Object was in full shadow at epoch
Visualization orbit readout
Latitude
Unknown
Longitude
Unknown
Altitude
Unknown
Speed
Unknown
Apparent Right ascension
Unknown
Apparent Declination
Unknown
Sunlit
N/A
Visualization observer readout
Local Sidereal Time
08:15:54
Azimuth
Unknown
Elevation
Unknown
Doppler factor
Unknown
Orbital elements
Apogee altitude
895.896 km
Perigee altitude
846.899 km
Semi-major axis
7,249.535 km
Eccentricity
0.00338
Inclination
82.5335°
RAAN
35.9904°
Arg. of periapsis
2.8884°
True anomaly
357.22893°
Mean anomaly
357.2476°
Eccentric anomaly
357.23827°
Mean motion
3.51624 °/min
Orbital period
102.38 mins
BSTAR
0.0016509
Loading maneuver chart data...
Computing Atmospheric mass density...
Loading historical data...
Loading historical data...
Loading historical data...
Loading historical data...
Loading historical data...
Loading historical data...
Loading historical data...

Documentation

Showing up to 5 results
|